Location: Buisson
(44.2787°N, 4.9969°E)
Time: 19:09:48
(UTC+00:00)

N. Korean satellite - Pass Details

Date: 27 September 2021
Orbit: 450 x 495 km, 97.3° (Epoch: 16 October)

Event Time Altitude Azimuth Distance (km) Brightness Sun altitude
Rises 04:09:16 0° 27° (NNE) 2,534 10.8 -15.7°
Reaches altitude 10° 04:11:44 10° 45° (NE) 1,660 10.2 -15.3°
Maximum altitude 04:14:25 20° 94° (E) 1,173 9.5 -14.8°
Drops below altitude 10° 04:17:07 10° 143° (SE) 1,667 9.6 -14.3°
Sets 04:19:36 0° 161° (SSE) 2,550 10.3 -13.9°
